Погода в Валдгейме

Россия / Еврейская автономная область     48°41′36″N   132°58′24″E
темп.,
°C
ветер,
м/с
пор.,
м/с
влажн.,
%
обл.,
%
осадки,
мм/ч
давл.,
гПа
погр.,
м
8 марта, пн
пн801:00−15зсз23910 0.0 102325
04:00−15зсз34880 0.0 102436
07:00−16з34850 0.0 102534
10:00−12з24830 0.0 1025164
13:00−7юз24750 0.0 1025432
16:00−4юз46760 0.0 1022556
19:00−9юз34830 0.0 102045
22:00−12ююз228911 0.0 101921
9 марта, вт
вт901:00−10юв1296100 0.1 101632
04:00−11вюв1198100 0.1 101221
07:00−12вюв1199100 0.1 100921
10:00−8ссз0095100 0.1 100774
13:00−3зюз2584100 0.0 1006608
16:000з61081100 0.1 10061185
19:00−5зсз7137271 0.0 1008281
22:00−9зсз498035 0.0 1012137
10 марта, ср
ср1001:00−7зсз510730 0.0 1015198
04:00−9зсз44780 0.0 101954
07:00−10зсз48830 0.0 1022106
10:00−7зсз47810 0.0 1024184
13:00−2зюз246833 0.0 1023431
16:00−1з377066 0.0 1021815
19:00−5юз488193 0.0 1019183
22:00−6ююз358596 0.0 102095
11 марта, чт
чт1101:00−8зюз3588100 0.0 101892
04:00−10з339067 0.0 101936
07:00−10сз34890 0.0 102066
10:00−6зсз47830 0.0 1023224
13:00−1зсз46655 0.0 1024674
16:00+1з36709 0.0 1024294
19:00−4з46690 0.0 102570
22:00−8зсз34770 0.0 102736
12 марта, пт
пт1201:00−10зсз34810 0.0 102840
04:00−11зсз33790 0.0 102827
07:00−12зсз22750 0.0 102921
10:00−8зсз12740 0.0 103089
13:00−2юз247237 0.0 1029361
16:000юз467732 0.0 1027341
19:00−4юз45830 0.0 102589
22:00−6юз34850 0.0 102634